SCP
-0 0 -0 -0 -0 -0 -0 -0 -0 -0 -0 0 -0 -0 -0 0 -0 -0 -0 0 0 0 0 0 0 0 0 0 0 0 0 0
-0 0 -0 -0 -0 -0 -0 -0 -0 -0 0 -0 -0 -0 -0 -0 -0 -0 -0 0 0 0 0 0 0 0 0 0 0 0 0 0
-0 0 0 -0 -0 -0 -0 -0 -0 -0 -0 -0 -0 -0 -0 0 -0 -0 -0 0 0 0 0 0 0 0 0 0 0 0 0 -0
-0 -0 0 0 -0 -0 -0 0 0 0 -0 -0 -0 -0 -0 -0 0 0 0 0 0 0 0 0 0 0 0 0 0 0 0 0
-0 -0 0 0 0 0 0 -0 -0 -0 -0 -0 -0 -0 -0 -0 -0 -0 0 0 -0 0 0 0 -0 0 0 0 -0 -0 -0 -0
-0 -0 -0 -0 0 0 0 0 -0 -0 -0 -0 -0 -0 -0 -0 -0 0 0 0 -0 -0 -0 -0 -0 -0 -0 -0 -0 -0 -0 0
-0 -0 -0 -0 -0 0 0 0 0 -0 -0 -0 0 -0 -0 -0 -0 -0 0 -0 -0 -0 -0 -0 -0 -0 -0 0 0 0 0 0
-0 -0 -0 -0 -0 -0 -0 0 0 0 0 0 -0 -0 0 0 -0 -0 -0 -0 -0 -0 0 -0 -0 0 0 -0 -0 -0 -0 0
0 -0 -0 -0 -0 -0 -0 -0 -0 -0 0 0 0 0 0 0 0 -0 -0 -0 -0 -0 0 0 -0 0 -0 0 -0 -0 -0 -0
-0 0 -0 -0 -0 -0 -0 -0 -0 -0 -0 0 0 0 0 0 0 0 -0 0 -0 -0 -0 -0 -0 -0 -0 -0 -0 0 0 0
-0 -0 -0 0 0 -0 -0 -0 -0 -0 -0 -0 -0 0 0 0 0 0 -0 -0 0 0 -0 -0 0 0 0 0 0 0 0 0
0 -0 0 0 0 0 0 0 0 -0 -0 0 0 -0 -0 -0 -0 -0 -0 -0 -0 0 0 0 0 0 0 0 0 0 0 0
-0 -0 -0 0 0 0 0 -0 0 0 0 0 0 0 0 0 0 0 0 -0 -0 0 0 0 0 0 0 0 0 0 0 0
-0 -0 -0 0 0 -0 0 0 -0 -0 -0 0 0 0 0 0 0 0 0 0 0 0 0 0 0 0 0 0 0 0 0 0
0 -0 -0 0 -0 0 0 0 0 0 0 0 0 0 0 0 0 0 0 0 0 0 0 0 0 0 0 1 0 0 0 0
0 0 0 0 0 0 0 0 0 0 0 0 0 0 0 0 0 0 0 0 0 0 1 1 1 1 0 0 0 0 0 0
0 0 0 0 0 0 0 0 0 0 0 0 0 0 0 0 0 0 0 0 0 1 1 1 1 1 1 0 0 0 0 0
0 0 0 0 0 0 0 0 0 0 0 0 0 0 0 0 0 0 0 1 1 1 1 1 2 1 1 0 0 0 0 0
0 0 0 0 0 0 0 0 0 0 0 0 0 0 0 0 0 1 1 1 1 1 1 2 2 3 1 1 0 0 0 0
Wind_Speed_500mb
42 43 40 35 32 32 33 34 36 37 37 36 33 32 31 31 31 29 27 24 22 20 16 14 13 11 8 5 5 7 8 10
40 41 38 34 32 34 35 35 36 37 37 35 32 31 30 30 29 28 26 24 23 21 17 15 13 9 5 4 5 8 10 11
36 39 38 36 34 35 35 35 36 36 36 34 31 29 28 27 26 25 24 22 20 17 14 12 10 8 4 1 5 9 11 12
36 37 37 36 36 34 34 35 36 35 35 33 31 27 26 25 23 22 21 20 18 15 12 8 6 4 2 4 7 11 14 18
35 35 34 34 34 35 36 36 36 36 34 33 31 28 25 22 20 18 16 15 13 12 10 9 8 6 5 4 8 12 12 15
36 34 32 32 33 33 35 36 37 36 35 34 32 29 26 23 20 17 16 14 14 14 12 12 12 7 5 6 11 12 13 14
37 34 32 32 31 33 35 37 37 36 37 35 33 30 28 25 22 20 19 17 16 15 15 16 13 10 10 11 11 15 16 15
31 33 33 32 32 34 35 35 37 38 38 37 35 33 31 28 27 24 23 20 16 16 18 20 16 13 13 12 15 17 15 23
36 28 33 37 38 37 38 38 38 39 40 40 38 38 35 33 31 28 25 26 23 22 24 25 19 19 17 16 17 18 19 14
35 35 35 42 41 43 43 42 41 39 39 37 38 39 38 38 35 33 30 31 30 28 26 24 22 21 21 19 17 21 20 21
46 42 42 45 47 44 44 43 44 43 40 38 38 39 39 38 37 37 34 33 35 32 29 27 27 26 27 30 28 25 24 28
34 43 53 53 49 45 45 47 47 46 44 42 41 40 41 41 41 40 38 37 37 37 37 34 34 37 33 29 30 36 35 35
15 32 38 47 57 54 53 51 50 49 47 46 42 42 44 43 44 45 46 45 38 37 37 36 34 35 34 34 36 36 37 41
29 6 23 26 24 51 60 59 58 54 50 46 44 40 42 41 39 42 44 43 41 45 44 42 45 44 45 39 36 41 45 45
58 37 13 11 27 40 42 58 64 63 59 55 53 49 44 44 42 45 46 45 39 44 49 50 53 53 52 46 48 50 48 45
67 59 50 22 6 19 26 31 45 64 69 67 64 61 55 51 50 53 54 53 48 50 52 51 57 58 59 55 50 51 49 48
68 66 60 53 41 23 7 19 36 42 44 58 67 67 67 63 57 57 57 58 56 55 56 59 62 66 65 62 59 48 34 33
66 65 58 52 47 44 34 12 19 24 27 24 34 39 48 57 56 57 61 67 68 64 69 66 67 68 68 64 62 51 21 21
61 55 49 45 42 40 38 34 27 21 17 21 28 36 32 42 54 60 62 69 74 71 77 80 79 76 73 76 70 70 61 45
Wind_Direction_500mb
177 174 168 169 176 177 173 166 161 159 154 150 147 142 136 133 129 125 122 121 120 122 124 121 115 109 103 79 36 34 26 7
179 175 170 172 175 178 173 169 166 163 157 153 152 145 140 134 130 126 124 122 120 119 120 117 113 105 90 51 14 8 360 3
181 179 176 175 179 178 175 173 171 168 162 159 158 152 144 137 134 130 129 127 126 127 131 131 126 124 112 24 348 347 342 337
186 182 182 182 180 181 179 178 178 174 171 167 166 161 155 148 145 140 137 136 135 141 146 149 145 145 209 305 325 330 324 324
187 188 189 189 187 185 184 185 185 182 179 177 177 175 170 167 162 157 159 158 160 170 179 190 199 212 253 310 346 338 352 345
191 191 192 198 196 193 192 191 193 191 189 189 189 189 187 187 184 183 188 188 191 199 198 198 191 203 244 302 321 315 323 327
192 194 197 201 202 203 202 200 200 201 201 199 200 201 202 203 203 204 208 208 210 213 200 190 200 226 253 269 289 310 330 355
188 196 202 201 206 212 212 210 208 209 210 209 210 213 214 217 219 219 221 215 208 209 202 207 218 235 249 266 291 309 311 329
199 203 208 207 209 213 214 216 216 215 214 216 217 220 223 227 229 228 228 215 209 205 204 215 229 236 261 280 285 292 314 319
241 245 241 229 223 221 219 219 222 223 222 223 223 226 229 232 236 236 233 229 221 220 225 233 246 255 259 275 286 294 301 313
276 265 258 249 241 239 241 238 237 236 237 238 238 238 240 242 243 243 240 235 228 235 238 242 244 257 265 275 283 291 291 293
280 288 284 278 260 251 249 249 250 249 246 243 246 247 249 251 253 253 250 249 247 247 250 248 255 263 268 273 271 292 295 291
264 254 258 274 276 267 257 252 252 254 255 252 252 254 255 257 258 258 256 258 258 258 259 262 271 265 269 269 273 282 291 296
53 270 250 254 280 281 271 261 257 255 252 250 256 262 257 256 260 262 264 268 268 269 271 272 273 273 272 273 271 279 291 293
52 57 78 212 238 251 263 269 263 262 262 256 256 256 258 258 259 262 267 273 277 275 272 277 281 276 273 271 276 282 287 288
44 46 47 37 345 249 248 258 273 272 266 263 262 266 264 261 265 269 271 272 273 276 281 278 274 274 275 271 269 279 283 285
30 33 36 34 33 34 288 253 255 259 274 273 269 268 266 264 264 267 269 271 273 270 272 274 274 274 272 269 272 273 273 275
21 21 23 21 19 19 17 322 250 243 246 263 267 270 274 273 277 282 282 279 276 273 271 270 271 271 270 264 268 265 260 240
19 16 16 13 11 6 357 351 359 350 298 255 247 232 235 274 292 292 290 278 273 273 273 270 268 263 264 259 256 257 249 252
Wind_Speed_850mb
42 43 40 35 32 32 33 34 36 37 37 36 33 32 31 31 31 29 27 24 22 20 16 14 13 11 8 5 5 7 8 10
40 41 38 34 32 34 35 35 36 37 37 35 32 31 30 30 29 28 26 24 23 21 17 15 13 9 5 4 5 8 10 11
36 39 38 36 34 35 35 35 36 36 36 34 31 29 28 27 26 25 24 22 20 17 14 12 10 8 4 1 5 9 11 12
36 37 37 36 36 34 34 35 36 35 35 33 31 27 26 25 23 22 21 20 18 15 12 8 6 4 2 4 7 11 14 18
35 35 34 34 34 35 36 36 36 36 34 33 31 28 25 22 20 18 16 15 13 12 10 9 8 6 5 4 8 12 12 15
36 34 32 32 33 33 35 36 37 36 35 34 32 29 26 23 20 17 16 14 14 14 12 12 12 7 5 6 11 12 13 14
37 34 32 32 31 33 35 37 37 36 37 35 33 30 28 25 22 20 19 17 16 15 15 16 13 10 10 11 11 15 16 15
31 33 33 32 32 34 35 35 37 38 38 37 35 33 31 28 27 24 23 20 16 16 18 20 16 13 13 12 15 17 15 23
36 28 33 37 38 37 38 38 38 39 40 40 38 38 35 33 31 28 25 26 23 22 24 25 19 19 17 16 17 18 19 14
35 35 35 42 41 43 43 42 41 39 39 37 38 39 38 38 35 33 30 31 30 28 26 24 22 21 21 19 17 21 20 21
46 42 42 45 47 44 44 43 44 43 40 38 38 39 39 38 37 37 34 33 35 32 29 27 27 26 27 30 28 25 24 28
34 43 53 53 49 45 45 47 47 46 44 42 41 40 41 41 41 40 38 37 37 37 37 34 34 37 33 29 30 36 35 35
15 32 38 47 57 54 53 51 50 49 47 46 42 42 44 43 44 45 46 45 38 37 37 36 34 35 34 34 36 36 37 41
29 6 23 26 24 51 60 59 58 54 50 46 44 40 42 41 39 42 44 43 41 45 44 42 45 44 45 39 36 41 45 45
58 37 13 11 27 40 42 58 64 63 59 55 53 49 44 44 42 45 46 45 39 44 49 50 53 53 52 46 48 50 48 45
67 59 50 22 6 19 26 31 45 64 69 67 64 61 55 51 50 53 54 53 48 50 52 51 57 58 59 55 50 51 49 48
68 66 60 53 41 23 7 19 36 42 44 58 67 67 67 63 57 57 57 58 56 55 56 59 62 66 65 62 59 48 34 33
66 65 58 52 47 44 34 12 19 24 27 24 34 39 48 57 56 57 61 67 68 64 69 66 67 68 68 64 62 51 21 21
61 55 49 45 42 40 38 34 27 21 17 21 28 36 32 42 54 60 62 69 74 71 77 80 79 76 73 76 70 70 61 45
Wind_Direction_850mb
177 174 168 169 176 177 173 166 161 159 154 150 147 142 136 133 129 125 122 121 120 122 124 121 115 109 103 79 36 34 26 7
179 175 170 172 175 178 173 169 166 163 157 153 152 145 140 134 130 126 124 122 120 119 120 117 113 105 90 51 14 8 360 3
181 179 176 175 179 178 175 173 171 168 162 159 158 152 144 137 134 130 129 127 126 127 131 131 126 124 112 24 348 347 342 337
186 182 182 182 180 181 179 178 178 174 171 167 166 161 155 148 145 140 137 136 135 141 146 149 145 145 209 305 325 330 324 324
187 188 189 189 187 185 184 185 185 182 179 177 177 175 170 167 162 157 159 158 160 170 179 190 199 212 253 310 346 338 352 345
191 191 192 198 196 193 192 191 193 191 189 189 189 189 187 187 184 183 188 188 191 199 198 198 191 203 244 302 321 315 323 327
192 194 197 201 202 203 202 200 200 201 201 199 200 201 202 203 203 204 208 208 210 213 200 190 200 226 253 269 289 310 330 355
188 196 202 201 206 212 212 210 208 209 210 209 210 213 214 217 219 219 221 215 208 209 202 207 218 235 249 266 291 309 311 329
199 203 208 207 209 213 214 216 216 215 214 216 217 220 223 227 229 228 228 215 209 205 204 215 229 236 261 280 285 292 314 319
241 245 241 229 223 221 219 219 222 223 222 223 223 226 229 232 236 236 233 229 221 220 225 233 246 255 259 275 286 294 301 313
276 265 258 249 241 239 241 238 237 236 237 238 238 238 240 242 243 243 240 235 228 235 238 242 244 257 265 275 283 291 291 293
280 288 284 278 260 251 249 249 250 249 246 243 246 247 249 251 253 253 250 249 247 247 250 248 255 263 268 273 271 292 295 291
264 254 258 274 276 267 257 252 252 254 255 252 252 254 255 257 258 258 256 258 258 258 259 262 271 265 269 269 273 282 291 296
53 270 250 254 280 281 271 261 257 255 252 250 256 262 257 256 260 262 264 268 268 269 271 272 273 273 272 273 271 279 291 293
52 57 78 212 238 251 263 269 263 262 262 256 256 256 258 258 259 262 267 273 277 275 272 277 281 276 273 271 276 282 287 288
44 46 47 37 345 249 248 258 273 272 266 263 262 266 264 261 265 269 271 272 273 276 281 278 274 274 275 271 269 279 283 285
30 33 36 34 33 34 288 253 255 259 274 273 269 268 266 264 264 267 269 271 273 270 272 274 274 274 272 269 272 273 273 275
21 21 23 21 19 19 17 322 250 243 246 263 267 270 274 273 277 282 282 279 276 273 271 270 271 271 270 264 268 265 260 240
19 16 16 13 11 6 357 351 359 350 298 255 247 232 235 274 292 292 290 278 273 273 273 270 268 263 264 259 256 257 249 252